User: anonymous   Login
Location: Unspecified
(0.0000°N, 0.0000°E)
Time: 02:48:15
(UTC+00:00)
Language:

AEROCUBE 6B - Orbit

View from above orbital plane
View from above orbital plane
View from above satellite
View from above satellite

Ground track
Ground track

The orbit data is extracted from the following two-line orbital elements,

1 40046U 14033AN  17147.57899311 +.00000398 +00000-0 +65587-4 0  9993
2 40046 097.8708 033.8092 0057900 357.4536 002.6370 14.74801231157444
Epoch (UTC): 27 May 2017 13:53:45
Eccentricity: 0.0057900
inclination: 97.8708°
perigee height: 605 km
apogee height: 686 km
right ascension of ascending node: 33.8092°
argument of perigee: 357.4536°
revolutions per day: 14.74801231
mean anomaly at epoch: 2.6370°
orbit number at epoch: 15744

The dashed part of the orbit path shows where the satellite is in the earth's shadow,  

DLR